HS3NOQ-2 Weather Reports


time (UTC)temp
C
wind
direction
speed
KPH
gust
KPH
rain 1hr
cm
rain 24hr
cm
rain mn
cm
humidity
%
barometer
mb
20260509134252 30 0 0.0 0.0 0.00 0.00 0.00 94
20260509132236 30 0 0.0 0.0 0.00 0.00 0.00 93
20260509130216 30 0 0.0 0.0 0.00 0.00 0.00 92
20260509124200 31 0 0.0 0.0 0.00 0.00 0.00 93
20260509122144 31 0 0.0 0.0 0.00 0.00 0.00 99
20260509120128 32 0 0.0 0.0 0.00 0.00 0.00 10
20260509114112 31 0 0.0 0.0 0.00 0.00 0.00 10
20260509112056 32 0 0.0 0.0 0.00 0.00 0.00 97
20260509110040 32 0 0.0 0.0 0.00 0.00 0.00 96
20260509104024 32 0 0.0 0.0 0.00 0.00 0.00 93
20260509102008 33 0 0.0 0.0 0.00 0.00 0.00 92
20260509095952 33 0 0.0 0.0 0.00 0.00 0.00 91
20260509093936 33 0 0.0 0.0 0.00 0.00 0.00 91
20260509091904 33 0 0.0 0.0 0.00 0.00 0.00 90
20260509090737 33 0 0.0 0.0 0.00 0.00 0.00 91
20260509084721 33 0 0.0 0.0 0.00 0.00 0.00 91
20260509082705 32 0 0.0 0.0 0.00 0.00 0.00 94
20260509080645 32 0 0.0 0.0 0.00 0.00 0.00 94
20260509074625 32 0 0.0 0.0 0.00 0.00 0.00 95
20260509072609 32 0 0.0 0.0 0.00 0.00 0.00 95
20260509070557 32 0 0.0 0.0 0.00 0.00 0.00 96
20260509064541 32 0 0.0 0.0 0.00 0.00 0.00 97
20260509062521 32 0 0.0 0.0 0.00 0.00 0.00 98
20260509060505 31 0 0.0 0.0 0.00 0.00 0.00 98
20260509054449 31 0 0.0 0.0 0.00 0.00 0.00 98
20260509052433 31 0 0.0 0.0 0.00 0.00 0.00 97
20260509050413 31 0 0.0 0.0 0.00 0.00 0.00 10
20260509044353 31 0 0.0 0.0 0.00 0.00 0.00 10
20260509042333 30 0 0.0 0.0 0.00 0.00 0.00 10
20260509040313 30 0 0.0 0.0 0.00 0.00 0.00 10
20260509034253 29 0 0.0 0.0 0.00 0.00 0.00 10
20260509032237 29 0 0.0 0.0 0.00 0.00 0.00 10
20260509030221 29 0 0.0 0.0 0.00 0.00 0.00 10
20260509024153 28 0 0.0 0.0 0.00 0.00 0.00 10
20260509023950 28 0 0.0 0.0 0.00 0.00 0.00 10
20260509021930 28 0 0.0 0.0 0.00 0.00 0.00 10
20260509015906 28 0 0.0 0.0 0.00 0.00 0.00 10
20260509013846 27 0 0.0 0.0 0.00 0.00 0.00 10
20260509011826 27 0 0.0 0.0 0.00 0.00 0.00 10
20260509005810 27 0 0.0 0.0 0.00 0.00 0.00 10
20260509003754 27 0 0.0 0.0 0.00 0.00 0.00 10
20260509001738 26 0 0.0 0.0 0.00 0.00 0.00 10
20260508235722 26 0 0.0 0.0 0.00 0.00 0.00 10
20260508233706 27 0 0.0 0.0 0.00 0.00 0.00 10
20260508231650 25 0 0.0 0.0 0.00 0.00 0.00 10
20260508225634 26 0 0.0 0.0 0.00 0.00 0.00 10
20260508223618 28 0 0.0 0.0 0.00 0.00 0.00 10
20260508221602 26 0 0.0 0.0 0.00 0.00 0.00 10
20260508215546 26 0 0.0 0.0 0.00 0.00 0.00 10
20260508213530 27 0 0.0 0.0 0.00 0.00 0.00 10
20260508211513 27 0 0.0 0.0 0.00 0.00 0.00 10
20260508205457 27 0 0.0 0.0 0.00 0.00 0.00 10
20260508203441 27 0 0.0 0.0 0.00 0.00 0.00 10
20260508201421 27 0 0.0 0.0 0.00 0.00 0.00 10
20260508195405 27 0 0.0 0.0 0.00 0.00 0.00 10
20260508193349 27 0 0.0 0.0 0.00 0.00 0.00 10
20260508191333 26 0 0.0 0.0 0.00 0.00 0.00 10
20260508185313 27 0 0.0 0.0 0.00 0.00 0.00 10
20260508183257 26 0 0.0 0.0 0.00 0.00 0.00 10
20260508181241 26 0 0.0 0.0 0.00 0.00 0.00 10
20260508175225 27 0 0.0 0.0 0.00 0.00 0.00 10
20260508173201 26 0 0.0 0.0 0.00 0.00 0.00 10
20260508171145 27 0 0.0 0.0 0.00 0.00 0.00 10
20260508165129 26 0 0.0 0.0 0.00 0.00 0.00 10
20260508163113 27 0 0.0 0.0 0.00 0.00 0.00 10
20260508161057 30 0 0.0 0.0 0.00 0.00 0.00 10
20260508160453 28 0 0.0 0.0 0.00 0.00 0.00 10
20260508154437 27 0 0.0 0.0 0.00 0.00 0.00 10
20260508152421 28 0 0.0 0.0 0.00 0.00 0.00 10
20260508150405 27 0 0.0 0.0 0.00 0.00 0.00 10
20260508144349 27 0 0.0 0.0 0.00 0.00 0.00 10
20260508142333 27 0 0.0 0.0 0.00 0.00 0.00 10
20260508140317 27 0 0.0 0.0 0.00 0.00 0.00 10